Weather History for Bar Harbor, ME

Change the Weather History Date:

Friday, January 24, 2014

  Actual Average Record
Temperature  
Mean Temperature 6 °F -  
Max Temperature 15 °F 34 °F 51 °F (1999)
Min Temperature -4 °F 16 °F -14 °F (1961)
Degree Days  
Heating Degree Days 60    
Moisture  
Dew Point -4 °F    
Average Humidity 64    
Maximum Humidity 92    
Minimum Humidity 38    
Precipitation  
Precipitation 0.00 in - - ()
Sea Level Pressure  
Sea Level Pressure 30.09 in    
Wind  
Wind Speed 3 mph (WNW)    
Max Wind Speed 12 mph    
Max Gust Speed 16 mph    
Visibility 10 miles    
Events      
Averages and records for this station are not official NWS values.
T = Trace of Precipitation, MM = Missing Value Source: NWS Daily Summary

Daily Weather History Graph

Daily Weather History Graph

Search for Another Location

Airport:

Trip Planner

Search our weather history database for the weather conditions in past years. The results will help you decide how hot, cold, wet, or windy it might be!

Date:

Astronomy

Jan. 24, 2014 Rise Set
Actual Time 6:59 AM EST 4:31 PM EST
Civil Twilight 6:28 AM EST 5:03 PM EST
Nautical Twilight 5:52 AM EST 5:38 PM EST
Astronomical Twilight 5:18 AM EST 6:13 PM EST
Moon 12:19 AM EST (1/24) 10:50 AM EST (1/24)
Length of Visible Light 10h 34m
Length of Day
9h 31m
Last Quarter, 45% of the Moon is Illuminated
Jan 24
Last Quarter
Jan 30
New
Feb 6
First Quarter
Feb 14
Full
Feb 22
Last Quarter

Hourly Weather History & Observations

Time (EST) Temp. Windchill Dew Point Humidity Pressure Visibility Wind Dir Wind Speed Gust Speed Precip Events Conditions
12:15 AM 3.2 °F - -4.0 °F 72% 30.04 in 10.0 mi Calm Calm - N/A   Clear
12:35 AM 3.2 °F -4.2 °F -2.2 °F 78% 30.04 in 10.0 mi NW 3.5 mph - N/A   Clear
12:55 AM 3.2 °F -4.2 °F -2.2 °F 78% 30.04 in 10.0 mi NW 3.5 mph - N/A   Clear
1:15 AM 3.2 °F - -2.2 °F 78% 30.05 in 10.0 mi Calm Calm - N/A   Clear
1:35 AM 1.4 °F -6.2 °F -4.0 °F 78% 30.05 in 10.0 mi NW 3.5 mph - N/A   Clear
1:55 AM 1.4 °F - -4.0 °F 78% 30.06 in 10.0 mi Calm Calm - N/A   Clear
2:15 AM 1.4 °F -6.2 °F -4.0 °F 78% 30.06 in 10.0 mi NW 3.5 mph - N/A   Clear
2:35 AM 1.4 °F - -5.8 °F 72% 30.07 in 10.0 mi Calm Calm - N/A   Clear
2:55 AM 1.4 °F -6.2 °F -5.8 °F 72% 30.07 in 10.0 mi NNW 3.5 mph - N/A   Clear
3:15 AM 1.4 °F -6.2 °F -4.0 °F 78% 30.07 in 10.0 mi NW 3.5 mph - N/A   Clear
3:35 AM 3.2 °F -4.2 °F -5.8 °F 66% 30.07 in 10.0 mi NW 3.5 mph - N/A   Clear
3:55 AM 1.4 °F -8.3 °F -5.8 °F 72% 30.07 in 10.0 mi NW 4.6 mph - N/A   Clear
4:15 AM 1.4 °F -6.2 °F -5.8 °F 72% 30.07 in 10.0 mi NW 3.5 mph - N/A   Partly Cloudy
4:35 AM 1.4 °F -9.9 °F -5.8 °F 72% 30.07 in 10.0 mi NW 5.8 mph - N/A   Partly Cloudy
4:55 AM 1.4 °F -8.3 °F -5.8 °F 72% 30.08 in 10.0 mi NW 4.6 mph - N/A   Clear
5:15 AM 1.4 °F -6.2 °F -5.8 °F 72% 30.09 in 10.0 mi WNW 3.5 mph - N/A   Clear
5:35 AM 1.4 °F -6.2 °F -5.8 °F 72% 30.09 in 10.0 mi WNW 3.5 mph - N/A   Clear
5:55 AM -0.4 °F - -7.6 °F 72% 30.10 in 10.0 mi Calm Calm - N/A   Clear
6:15 AM -0.4 °F - -7.6 °F 72% 30.10 in 10.0 mi Calm Calm - N/A   Clear
6:35 AM -2.2 °F - -7.6 °F 78% 30.11 in 10.0 mi Calm Calm - N/A   Clear
6:55 AM -2.2 °F - -9.4 °F 71% 30.11 in 10.0 mi Calm Calm - N/A   Clear
7:15 AM -4.0 °F - -9.4 °F 78% 30.12 in 10.0 mi Calm Calm - N/A   Clear
7:35 AM -0.4 °F - -5.8 °F 78% 30.12 in 10.0 mi Calm Calm - N/A   Clear
7:55 AM 3.2 °F - -4.0 °F 72% 30.13 in 10.0 mi Calm Calm - N/A   Clear
8:15 AM 5.0 °F - -2.2 °F 72% 30.14 in 10.0 mi Calm Calm - N/A   Clear
8:35 AM 6.8 °F -2.0 °F -2.2 °F 67% 30.14 in 10.0 mi WNW 4.6 mph - N/A   Clear
8:55 AM 6.8 °F -2.0 °F -4.0 °F 61% 30.14 in 10.0 mi NNW 4.6 mph - N/A   Clear
9:15 AM 8.6 °F -2.6 °F -5.8 °F 52% 30.15 in 10.0 mi NW 6.9 mph - N/A   Clear
9:35 AM 8.6 °F -6.3 °F -4.0 °F 57% 30.14 in 10.0 mi WNW 11.5 mph 16.1 mph N/A   Clear
9:55 AM 8.6 °F -2.6 °F -5.8 °F 52% 30.14 in 10.0 mi NW 6.9 mph - N/A   Clear
10:15 AM 10.4 °F -2.4 °F -5.8 °F 48% 30.14 in 10.0 mi NW 9.2 mph - N/A   Clear
10:35 AM 10.4 °F -1.5 °F -5.8 °F 48% 30.13 in 10.0 mi NNW 8.1 mph - N/A   Clear
10:55 AM 10.4 °F -2.4 °F -5.8 °F 48% 30.12 in 10.0 mi NW 9.2 mph - N/A   Clear
11:15 AM 12.2 °F 0.7 °F -5.8 °F 45% 30.11 in 10.0 mi WNW 8.1 mph - N/A   Clear
11:35 AM 12.2 °F 0.7 °F -5.8 °F 45% 30.10 in 10.0 mi NNW 8.1 mph - N/A   Clear
11:55 AM 12.2 °F 2.9 °F -5.8 °F 45% 30.09 in 10.0 mi NNW 5.8 mph - N/A   Clear
12:15 PM 15.8 °F 6.1 °F -4.0 °F 41% 30.09 in 10.0 mi WNW 6.9 mph - N/A   Clear
12:35 PM 15.8 °F 5.1 °F -5.8 °F 38% 30.08 in 10.0 mi NNW 8.1 mph - N/A   Clear
12:55 PM 15.8 °F 8.6 °F -4.0 °F 41% 30.07 in 10.0 mi WNW 4.6 mph - N/A   Clear
1:15 PM 15.8 °F 6.1 °F -5.8 °F 38% 30.07 in 10.0 mi NNW 6.9 mph - N/A   Clear
1:35 PM 15.8 °F 7.2 °F -4.0 °F 41% 30.07 in 10.0 mi WNW 5.8 mph - N/A   Clear
1:55 PM 15.8 °F 7.2 °F -5.8 °F 38% 30.07 in 10.0 mi WNW 5.8 mph - N/A   Clear
2:15 PM 15.8 °F 6.1 °F -4.0 °F 41% 30.06 in 10.0 mi West 6.9 mph - N/A   Clear
2:35 PM 15.8 °F 6.1 °F -4.0 °F 41% 30.06 in 10.0 mi WNW 6.9 mph - N/A   Clear
2:55 PM 15.8 °F 6.1 °F -4.0 °F 41% 30.06 in 10.0 mi West 6.9 mph - N/A   Clear
3:15 PM 15.8 °F 7.2 °F -4.0 °F 41% 30.07 in 10.0 mi West 5.8 mph - N/A   Clear
3:35 PM 15.8 °F 6.1 °F -4.0 °F 41% 30.07 in 10.0 mi West 6.9 mph - N/A   Clear
3:55 PM 14.0 °F 5.1 °F -4.0 °F 45% 30.07 in 10.0 mi West 5.8 mph - N/A   Clear
4:15 PM 12.2 °F 4.3 °F -4.0 °F 48% 30.07 in 10.0 mi West 4.6 mph - N/A   Clear
4:35 PM 10.4 °F - -4.0 °F 52% 30.08 in 10.0 mi Calm Calm - N/A   Clear
4:55 PM 8.6 °F - -4.0 °F 57% 30.08 in 10.0 mi Calm Calm - N/A   Clear
5:15 PM 8.6 °F - -4.0 °F 57% 30.08 in 10.0 mi Calm Calm - N/A   Clear
5:35 PM 6.8 °F - -4.0 °F 61% 30.09 in 10.0 mi Calm Calm - N/A   Clear
5:55 PM 6.8 °F -0.1 °F -4.0 °F 61% 30.09 in 10.0 mi West 3.5 mph - N/A   Clear
6:15 PM 6.8 °F - -4.0 °F 61% 30.10 in 10.0 mi Calm Calm - N/A   Clear
6:35 PM 6.8 °F - -2.2 °F 67% 30.09 in 10.0 mi Calm Calm - N/A   Clear
6:55 PM 6.8 °F - -2.2 °F 67% 30.11 in 10.0 mi Calm Calm - N/A   Clear
7:15 PM 5.0 °F -2.1 °F -2.2 °F 72% 30.11 in 10.0 mi West 3.5 mph - N/A   Clear
7:35 PM 5.0 °F - -2.2 °F 72% 30.10 in 10.0 mi Calm Calm - N/A   Clear
7:55 PM 5.0 °F - -2.2 °F 72% 30.10 in 10.0 mi Calm Calm - N/A   Clear
8:15 PM 3.2 °F -4.2 °F -4.0 °F 72% 30.10 in 10.0 mi WSW 3.5 mph - N/A   Clear
8:35 PM 5.0 °F - -2.2 °F 72% 30.09 in 10.0 mi Calm Calm - N/A   Clear
8:55 PM 5.0 °F - -2.2 °F 72% 30.10 in 10.0 mi Calm Calm - N/A   Clear
9:15 PM 5.0 °F - -2.2 °F 72% 30.09 in 10.0 mi Calm Calm - N/A   Clear
9:35 PM 5.0 °F - -2.2 °F 72% 30.09 in 10.0 mi Calm Calm - N/A   Clear
9:55 PM 3.2 °F - -5.8 °F 66% 30.08 in 10.0 mi Calm Calm - N/A   Clear
10:15 PM 1.4 °F - -7.6 °F 66% 30.08 in 10.0 mi Calm Calm - N/A   Clear
10:35 PM -0.4 °F - -5.8 °F 78% 30.07 in 10.0 mi Calm Calm - N/A   Scattered Clouds
10:55 PM -0.4 °F - -5.8 °F 78% 30.06 in 10.0 mi Calm Calm - N/A   Overcast
11:15 PM 1.4 °F - -0.4 °F 92% 30.05 in 10.0 mi Calm Calm - N/A   Overcast
11:35 PM 1.4 °F - -2.2 °F 85% 30.04 in 10.0 mi Calm Calm - N/A   Scattered Clouds
11:55 PM 1.4 °F - -0.4 °F 92% 30.04 in 10.0 mi Calm Calm - N/A   Clear